White Mountain, AK

6:46 PM AKST on November 17, 2017 (GMT -0900)
White Mountain

Weather History for PAWM - December, 2012

Change the Weather History Date:

Wednesday, December 26, 2012

  Actual Average (PAOM) Record (PAOM)
Temperature  
Mean Temperature 8 °F -  
Max Temperature 10 °F 15 °F 41 °F (1985)
Min Temperature 5 °F -1 °F -37 °F (1961)
Degree Days  
Heating Degree Days 58    
Moisture  
Dew Point 6 °F    
Average Humidity 89    
Maximum Humidity 92    
Minimum Humidity 80    
Precipitation  
Precipitation 0.00 in - - ()
Sea Level Pressure  
Sea Level Pressure 29.53 in    
Wind  
Wind Speed 8 mph (North)    
Max Wind Speed 16 mph    
Max Gust Speed -    
Visibility 9 miles    
Events Snow    
Averages and records for this station are not official NWS values.
T = Trace of Precipitation, MM = Missing Value Source: NWS Daily Summary

Daily Weather History Graph

Daily Weather History Graph

Search for Another Location

Airport or City:

Trip Planner

Search our weather history database for the weather conditions in past years. The results will help you decide how hot, cold, wet, or windy it might be!

Date:

Astronomy

Dec. 26, 2012 Rise Set
Actual Time 11:58 AM AKST 3:50 PM AKST
Civil Twilight 10:35 AM AKST 5:14 PM AKST
Nautical Twilight 9:24 AM AKST 6:25 PM AKST
Astronomical Twilight 8:23 AM AKST 7:26 PM AKST
Moon 3:13 PM AKST (12/26) 10:12 AM AKST (12/26)
Length of Visible Light 6h 38m
Length of Day
3h 52m
Waxing Gibbous, 98% of the Moon is Illuminated
Dec 26
Waxing Gibbous
Dec 28
Full
Jan 4
Last Quarter
Jan 11
New
Jan 18
First Quarter

Hourly Weather History & Observations

Time (AKST) Temp. Windchill Dew Point Humidity Pressure Visibility Wind Dir Wind Speed Gust Speed Precip Events Conditions
12:49 AM 8.6 °F -1.3 °F 6.8 °F 92% 29.61 in 7.0 mi NE 5.8 mph - 0.00 in Snow Light Snow
12:58 AM 9.0 °F -0.9 °F 7.0 °F 92% 29.64 in 7.0 mi NE 5.8 mph - 0.00 in Snow Light Snow
1:58 AM 10.0 °F 0.4 °F 8.1 °F 92% 29.64 in 9.0 mi NNE 5.8 mph - 0.00 in Snow Light Snow
3:58 AM 10.0 °F 1.8 °F 8.1 °F 92% 29.63 in 9.0 mi NNE 4.6 mph - 0.00 in   Overcast
4:58 AM 10.9 °F 1.4 °F 8.1 °F 88% 29.61 in 9.0 mi North 5.8 mph - 0.00 in Snow Light Snow
5:58 AM 9.0 °F -2.2 °F 7.0 °F 92% 29.60 in 9.0 mi North 6.9 mph - 0.00 in Snow Light Snow
6:58 AM 10.0 °F -0.9 °F 7.0 °F 87% 29.60 in 10.0 mi North 6.9 mph - 0.00 in   Overcast
7:58 AM 10.0 °F -1.9 °F 7.0 °F 87% 29.58 in 9.0 mi North 8.1 mph - 0.00 in   Overcast
8:58 AM 10.0 °F 0.4 °F 7.0 °F 87% 29.57 in 10.0 mi North 5.8 mph - N/A   Overcast
9:58 AM 10.9 °F 1.4 °F 8.1 °F 88% 29.56 in 9.0 mi North 5.8 mph - N/A   Overcast
10:58 AM 10.9 °F 0.2 °F 8.1 °F 88% 29.55 in 9.0 mi North 6.9 mph - N/A   Overcast
11:58 AM 10.9 °F -0.8 °F 8.1 °F 88% 29.55 in 7.0 mi North 8.1 mph - 0.00 in Snow Light Snow
12:58 PM 10.9 °F -2.6 °F 8.1 °F 88% 29.54 in 7.0 mi North 10.4 mph - 0.00 in Snow Light Snow
1:33 PM 10.4 °F -0.4 °F 8.6 °F 92% 29.49 in 8.0 mi NNW 6.9 mph - 0.00 in Snow Light Snow
1:58 PM 10.9 °F -0.8 °F 8.1 °F 88% 29.53 in 7.0 mi North 8.1 mph - 0.00 in Snow Light Snow
2:58 PM 10.0 °F -0.9 °F 7.0 °F 87% 29.53 in 7.0 mi North 6.9 mph - 0.00 in Snow Light Snow
3:18 PM 8.6 °F -2.6 °F 6.8 °F 92% 29.49 in 8.0 mi North 6.9 mph - 0.00 in Snow Light Snow
3:58 PM 8.1 °F -6.2 °F 6.1 °F 92% 29.50 in 8.0 mi North 10.4 mph - 0.00 in   Clear
4:58 PM 6.1 °F -10.2 °F 3.9 °F 91% 29.48 in 9.0 mi North 12.7 mph - N/A   Clear
5:58 PM 5.0 °F -10.8 °F 3.0 °F 92% 29.47 in 10.0 mi North 11.5 mph - N/A   Clear
6:58 PM 5.0 °F -11.6 °F 1.9 °F 87% 29.46 in 10.0 mi NNW 12.7 mph - N/A   Clear
7:58 PM 5.0 °F -13.0 °F 1.9 °F 87% 29.45 in 10.0 mi North 15.0 mph - N/A   Clear
8:58 PM 5.0 °F -13.6 °F 1.9 °F 87% 29.45 in 10.0 mi North 16.1 mph - N/A   Clear
9:58 PM 6.1 °F -10.2 °F 3.0 °F 87% 29.43 in 10.0 mi North 12.7 mph - N/A   Clear
10:58 PM 9.0 °F -7.3 °F 3.9 °F 80% 29.43 in 10.0 mi North 13.8 mph - N/A   Clear
11:58 PM 10.9 °F -2.6 °F 6.1 °F 81% 29.43 in 10.0 mi North 10.4 mph - N/A   Overcast